Location: Long Geng
(2.6167°N, 114.1333°E)
Time: 20:32:09
(UTC+00:00)

Meteor 1-31 Rocket - Pass Details

Date: 14 May 2021
Orbit: 521 x 545 km, 97.7° (Epoch: 16 June)

Event Time Altitude Azimuth Distance (km) Brightness Sun altitude
Rises 20:45:23 0° 19° (NNE) 2,693 6.9 -21.3°
Reaches altitude 10° 20:47:32 10° 24° (NNE) 1,803 6.0 -20.8°
Maximum altitude 20:51:20 52° 101° (ESE) 680 3.5 -20.0°
Enters shadow 20:54:56 11° 177° (S) 1,724 5.2 -19.1°
